Temperature
8 8 8 8 9 9 9 9 9 9 10 10 10 10 10 10 10 10 10 10 10 10 10 9 9 10 9 9 9 9 9 8 8 8 8 7 7 7 6 6 6 5 5
7 7 8 8 8 8 9 9 9 9 9 10 10 10 10 10 10 10 10 10 10 10 10 9 10 9 9 9 9 9 8 8 8 8 8 7 7 6 6 6 5 5 4
7 7 7 8 8 8 8 8 9 9 9 10 9 10 10 10 10 10 10 10 10 10 10 10 10 9 9 9 9 8 8 8 8 7 7 7 6 6 6 5 5 4 4
7 7 7 7 7 8 8 8 8 8 9 9 9 10 10 10 10 10 10 10 10 10 10 10 10 9 9 9 9 8 8 8 7 7 7 6 6 6 5 5 5 4 4
6 6 7 7 7 7 7 8 8 8 9 9 9 9 9 10 10 10 10 10 10 10 9 9 9 9 9 9 8 8 8 7 7 7 6 6 6 6 5 5 5 4 3
6 6 6 6 7 7 7 7 7 8 8 9 9 9 9 9 10 10 10 10 10 9 9 9 9 9 9 9 8 8 8 7 7 7 6 6 6 6 5 5 4 3 3
5 5 6 6 6 6 6 6 7 7 8 8 8 9 9 9 9 10 10 10 9 9 9 9 9 9 8 8 8 8 7 7 7 7 6 6 6 5 5 4 4 3 3
5 5 5 5 5 6 6 6 6 7 7 7 8 8 9 9 9 9 9 9 9 9 9 9 8 8 8 8 8 7 7 7 7 6 6 6 5 5 4 4 3 3 2
5 5 5 5 5 5 5 5 6 6 7 7 7 8 8 8 9 9 9 9 9 9 8 8 8 8 8 8 7 7 7 7 6 6 6 5 5 4 4 4 3 2 2
4 4 4 4 5 5 5 5 5 6 6 7 7 7 7 8 8 8 8 8 8 8 8 8 8 8 8 8 7 7 7 6 6 6 5 5 4 4 4 3 3 2 1
3 4 4 4 4 5 5 5 5 6 6 6 6 7 7 7 8 8 8 8 8 8 8 8 8 8 8 8 7 7 7 7 6 5 5 4 4 4 3 3 2 2 1
3 3 4 4 4 4 5 5 5 5 5 6 6 6 6 7 7 7 7 8 8 8 8 8 8 7 7 7 7 7 6 6 6 5 5 4 4 3 3 2 2 1 1
3 3 3 4 4 4 4 5 5 5 5 5 5 5 6 6 6 7 7 7 7 7 7 7 7 7 7 7 6 6 6 6 5 5 4 4 3 3 2 2 1 1 0
2 2 3 3 4 4 4 4 5 5 5 5 5 5 5 6 6 6 6 7 7 7 7 7 7 6 6 6 6 5 5 5 5 5 4 3 3 2 2 1 1 0 0
2 2 2 3 3 3 4 4 4 4 4 4 4 5 5 5 6 6 6 6 6 6 6 6 6 5 5 5 5 5 5 4 4 4 4 3 2 2 1 1 0 0 -0
2 2 2 2 3 3 3 4 4 4 4 4 4 4 4 5 5 5 6 6 6 6 6 5 5 5 5 5 5 5 4 4 4 3 3 3 2 2 1 1 0 -0 -0
1 1 2 2 2 3 3 3 3 4 4 4 4 4 4 5 5 5 5 5 5 5 5 5 5 5 5 5 5 4 4 4 3 3 3 2 2 1 1 0 -0 -1 -1
1 1 1 2 2 2 2 3 3 3 3 3 4 4 4 4 5 5 5 5 5 5 5 5 4 4 4 4 4 4 4 3 3 3 2 2 1 1 1 0 -0 -1 -1
1 1 1 1 2 2 2 2 2 2 3 3 3 3 4 4 4 4 4 4 4 4 4 4 4 4 4 4 4 4 4 3 3 2 2 1 1 1 0 0 -1 -1 -1
0 1 1 1 1 2 2 2 2 2 2 2 2 3 3 3 3 4 4 4 4 4 4 4 4 4 4 4 4 3 3 3 2 2 2 1 1 0 0 -0 -1 -1 -2
-0 0 1 1 1 1 1 1 1 2 2 2 2 2 3 3 3 3 3 3 3 3 3 3 3 3 3 3 3 3 3 3 2 2 1 1 1 0 0 -0 -1 -1 -2
-1 -0 -0 -0 0 1 1 1 1 1 1 2 2 2 2 2 3 3 3 3 3 3 3 3 3 3 3 3 3 3 3 2 2 2 1 1 1 0 -0 -1 -1 -2 -2
-1 -1 -1 -1 -0 -0 0 0 0 0 1 1 1 1 2 2 2 2 2 3 3 3 3 3 3 3 3 3 3 3 3 2 2 2 1 1 1 0 -0 -1 -1 -2 -2
-2 -2 -2 -1 -1 -1 -1 -0 -0 -0 0 1 1 1 1 1 2 2 2 2 2 2 2 2 2 3 2 2 2 2 2 2 2 1 1 1 1 0 -0 -1 -1 -2 -2
-3 -3 -2 -2 -2 -1 -1 -1 -1 -1 -0 0 0 1 1 1 1 1 2 2 2 2 2 2 2 2 2 2 2 2 2 1 1 1 1 1 0 -0 -0 -1 -1 -2 -2
-3 -3 -3 -2 -2 -2 -2 -2 -1 -1 -1 -1 -0 0 0 1 1 1 1 2 2 2 2 2 2 2 2 1 1 1 1 1 1 1 1 0 -0 -0 -1 -1 -1 -2 -3
Wind_Speed
4 4 4 5 5 7 8 9 10 10 12 13 13 13 13 14 14 14 14 14 14 13 12 12 11 9 7 6 5 5 4 4 4 2 1 1 2 3 2 2 3 3 2
3 3 3 3 3 5 6 6 8 10 12 13 13 13 14 14 15 16 16 15 15 15 14 13 12 9 9 7 6 6 5 4 4 4 2 2 2 3 2 1 1 1 1
3 3 3 3 4 4 5 5 6 7 9 11 12 13 13 14 14 15 15 15 15 15 14 14 13 12 10 8 8 7 5 4 4 4 3 2 1 1 2 1 0 1 0
3 3 3 3 4 4 4 4 5 6 8 9 11 12 12 13 14 14 14 14 13 13 12 12 12 13 12 11 9 8 7 6 4 4 3 2 2 1 2 1 0 0 1
3 3 3 3 2 2 2 3 4 5 6 7 9 10 11 11 12 13 13 13 13 12 11 11 11 13 14 12 9 9 9 7 5 5 4 3 3 2 3 2 2 1 1
3 3 3 2 2 2 2 2 3 4 4 5 7 9 10 9 13 15 13 12 13 13 12 11 11 12 14 15 15 14 13 10 9 7 5 5 5 4 3 3 2 1 2
4 3 2 2 2 3 3 3 3 3 3 4 5 6 9 10 13 16 15 12 12 12 12 11 9 9 12 10 11 11 11 11 12 10 8 7 7 7 6 4 3 2 3
4 4 3 2 3 3 2 3 3 3 4 5 5 5 6 10 14 15 14 11 10 11 11 11 11 10 10 11 9 8 6 6 8 7 7 7 6 7 7 6 5 2 1
5 4 3 3 4 4 3 3 3 3 3 3 4 5 5 8 12 14 13 8 9 10 10 10 11 11 15 16 12 9 7 4 5 8 8 7 8 9 9 6 4 3 1
5 5 4 3 4 4 4 3 3 3 3 2 3 3 4 6 10 12 13 8 9 8 8 9 13 13 17 18 13 11 10 7 7 7 6 6 6 8 9 6 6 3 2
5 4 4 4 4 4 3 3 3 2 1 1 2 2 3 6 9 12 12 8 8 9 8 8 8 15 17 17 14 10 12 10 8 7 6 5 4 4 4 4 3 4 3
4 4 4 4 4 3 3 2 2 2 2 1 1 1 2 3 6 9 12 10 8 8 8 7 8 15 16 16 12 12 15 13 7 7 6 5 4 3 3 3 3 3 2
4 5 5 5 4 3 2 2 2 2 2 2 2 2 1 1 4 8 10 11 10 6 6 10 12 15 15 11 13 16 14 9 8 7 6 5 4 4 4 4 4 5 5
5 4 4 4 4 3 2 2 2 2 2 2 3 2 2 2 2 4 5 7 8 6 6 9 12 13 10 10 11 10 7 7 7 7 6 5 5 5 4 3 2 2 3
4 4 4 4 3 3 4 3 3 3 4 4 4 3 4 4 5 6 6 6 6 6 7 5 5 7 6 6 6 6 6 6 6 6 7 6 5 5 4 3 3 2 2
4 4 3 3 3 3 3 4 3 4 4 5 5 5 4 5 5 6 6 8 11 13 9 7 7 7 8 8 8 7 6 6 6 7 7 7 6 6 5 4 3 2 2
4 5 4 4 3 3 2 2 3 4 2 3 4 4 4 5 5 7 8 9 12 13 7 7 7 7 8 8 8 7 6 6 7 7 7 7 6 6 6 5 4 2 2
5 6 5 4 3 3 3 3 2 2 3 2 1 2 3 4 6 8 10 9 7 7 5 7 7 7 7 8 8 7 7 7 7 7 7 7 7 6 6 5 4 4 3
5 4 4 3 3 3 2 2 2 3 3 2 1 1 1 3 6 8 9 6 7 6 5 6 6 7 7 7 7 7 8 8 8 7 7 7 7 6 6 5 5 6 4
4 7 5 3 2 2 2 2 2 2 2 2 2 2 1 2 3 4 4 5 5 6 6 6 6 7 7 7 8 8 7 7 8 7 7 7 6 6 7 7 6 6 4
4 5 5 3 2 2 2 3 3 3 3 3 3 3 4 3 4 5 4 4 5 6 6 6 6 7 7 7 7 8 9 8 7 7 7 7 7 6 6 6 6 5 4
4 3 3 3 3 3 3 3 3 3 3 3 2 2 3 2 3 4 4 4 4 5 6 6 6 6 7 8 9 9 9 8 8 8 7 7 7 7 6 6 6 5 5
4 3 3 3 3 4 4 3 3 3 3 3 3 3 3 2 3 4 4 4 4 5 5 6 6 6 6 6 8 9 10 10 9 10 9 9 8 7 7 7 8 7 6
4 4 4 3 3 3 3 3 3 3 3 3 3 3 3 3 3 3 4 4 5 5 6 6 6 8 9 7 7 7 7 9 10 11 12 10 9 8 7 7 7 7 7
4 4 4 3 3 3 3 3 3 3 3 3 3 3 3 3 3 4 4 5 6 6 6 6 6 7 10 10 9 9 12 14 14 12 11 10 10 9 9 9 8 8 7
5 5 4 4 4 4 4 4 3 3 4 4 3 3 4 4 4 4 5 5 6 6 6 6 7 8 10 10 12 14 16 17 17 16 13 10 10 9 9 8 9 8 8
Wind_Direction
257 243 241 242 236 227 221 220 216 211 203 204 201 202 203 199 193 191 192 185 188 191 190 190 194 186 185 184 175 175 181 174 197 204 154 139 148 163 149 169 186 197 225
283 272 255 255 240 229 224 226 220 214 207 206 202 202 203 198 193 191 190 189 190 193 194 192 193 187 187 183 181 184 186 182 181 190 180 160 168 177 166 172 156 182 210
302 290 263 255 246 232 228 228 230 220 211 206 204 204 203 197 192 193 192 190 192 195 194 193 191 186 191 188 184 187 186 178 171 169 176 160 155 144 136 134 108 61 275
307 305 292 264 251 237 228 228 233 227 217 209 209 205 202 193 190 192 191 189 189 193 194 193 191 191 192 186 188 188 179 174 166 158 163 155 155 134 136 158 216 308 305
300 301 284 281 275 267 243 234 237 237 226 218 215 206 197 190 190 186 187 185 186 188 191 192 192 190 187 186 186 185 179 180 173 174 174 167 172 165 185 180 198 276 286
300 298 293 298 295 279 271 254 250 243 230 223 221 206 192 194 189 183 183 185 185 187 189 190 191 189 186 184 182 181 180 183 188 188 193 193 200 193 172 168 157 149 249
311 303 298 300 291 273 276 256 252 254 245 234 226 208 197 193 184 182 180 187 187 188 189 189 188 187 183 184 179 177 182 181 184 188 192 201 193 189 172 170 181 189 212
317 311 302 299 293 280 271 269 255 252 236 235 218 212 202 192 182 179 177 185 186 187 188 187 184 182 181 174 170 175 184 189 187 186 190 192 186 177 175 172 168 132 80
316 312 299 291 290 283 268 270 265 255 250 230 209 205 203 190 179 176 174 182 185 187 186 185 183 183 176 167 167 170 165 163 150 150 147 147 148 151 143 126 127 121 160
304 299 297 289 286 280 270 261 276 261 249 226 221 212 203 193 179 174 172 181 184 182 182 185 183 181 175 170 174 174 174 171 150 136 129 129 132 142 143 149 161 154 145
304 305 305 302 293 284 279 269 276 270 245 223 223 227 208 193 180 175 174 182 183 179 182 187 187 176 173 173 174 179 174 158 152 145 139 131 122 125 128 125 141 155 157
308 307 307 307 303 293 279 279 278 252 209 226 216 250 208 188 179 180 180 180 172 177 183 182 178 170 169 169 172 164 152 145 145 145 146 149 149 146 132 115 101 88 113
311 304 303 305 302 294 270 264 279 235 202 224 217 241 237 201 182 179 178 172 165 168 171 166 164 164 163 165 160 155 150 151 153 155 163 165 155 145 126 106 86 78 65
293 292 296 303 306 306 287 258 256 243 215 219 227 231 233 212 195 185 182 169 154 147 145 148 150 153 151 151 154 154 154 161 160 162 156 143 133 133 133 126 119 104 73
297 299 303 299 295 301 303 279 260 250 236 226 225 218 217 223 218 196 187 179 168 155 140 137 142 150 153 153 150 148 151 152 149 144 144 143 143 141 141 136 129 120 108
300 299 293 292 293 294 306 316 302 262 260 248 238 232 234 226 210 190 179 169 157 151 145 154 160 162 164 165 163 161 161 160 156 152 151 154 155 155 150 145 141 141 138
281 284 285 285 284 288 289 295 312 330 307 246 239 236 228 208 191 174 164 157 155 152 151 162 167 169 168 168 167 166 167 162 156 155 156 157 156 156 156 155 154 148 140
277 280 280 272 270 266 263 263 253 262 289 301 283 234 212 191 176 165 158 145 153 158 164 166 169 170 169 168 165 161 156 153 155 156 156 156 157 158 160 160 162 160 149
279 277 274 268 264 258 257 260 249 238 240 257 290 291 196 172 164 160 156 160 167 172 168 167 166 167 167 164 159 156 157 159 158 157 157 158 161 159 160 159 159 155 142
285 284 282 272 268 267 261 258 253 238 232 227 230 225 201 158 157 164 165 165 167 171 171 169 165 162 163 161 155 154 154 156 157 156 159 162 163 162 160 158 159 162 162
285 286 289 284 265 261 258 254 251 237 228 230 228 223 214 188 181 180 183 179 174 172 170 166 161 159 160 158 156 157 157 160 161 160 160 162 162 157 154 154 155 154 149
280 274 271 264 265 265 265 252 246 234 222 225 231 219 204 186 178 179 181 179 173 171 168 164 162 164 167 166 163 162 162 162 162 161 160 159 157 152 150 151 150 149 147
276 268 270 267 260 267 276 260 247 230 219 218 211 195 186 185 185 177 175 168 161 159 156 157 157 159 157 159 163 165 167 170 169 164 160 158 156 155 156 156 154 152 154
272 266 262 260 257 248 248 253 247 228 216 209 199 194 189 186 183 173 166 160 156 154 152 153 156 158 156 156 158 158 156 154 154 157 156 157 156 155 154 154 153 153 153
272 266 261 254 251 245 241 245 241 226 207 199 194 195 192 182 173 165 160 158 156 155 153 149 149 152 157 158 157 155 153 150 149 149 147 150 151 152 151 150 149 148 145
271 266 258 251 247 242 238 237 227 214 200 195 192 195 190 181 172 163 159 157 155 153 150 147 149 152 156 157 155 153 152 151 149 148 145 144 148 148 147 145 143 144 143
Height
1381 1381 1381 1382 1384 1386 1388 1391 1393 1396 1400 1404 1407 1411 1414 1418 1423 1427 1431 1435 1440 1445 1450 1454 1458 1463 1466 1469 1472 1474 1477 1478 1479 1479 1480 1481 1482 1482 1482 1481 1480 1479 1477
1378 1378 1378 1379 1380 1382 1384 1386 1388 1391 1394 1398 1402 1405 1408 1412 1417 1421 1425 1430 1434 1439 1443 1448 1452 1457 1461 1464 1467 1469 1472 1473 1475 1475 1476 1477 1478 1478 1478 1477 1476 1475 1473
1375 1375 1375 1376 1377 1378 1379 1381 1383 1386 1389 1393 1396 1399 1402 1406 1411 1416 1420 1424 1429 1434 1438 1442 1446 1451 1455 1458 1461 1464 1466 1469 1470 1471 1472 1473 1473 1473 1473 1472 1472 1471 1469
1373 1372 1372 1373 1374 1375 1376 1377 1379 1380 1383 1386 1390 1393 1397 1400 1405 1410 1415 1419 1423 1428 1433 1436 1441 1445 1449 1452 1456 1459 1461 1464 1465 1466 1467 1468 1468 1468 1468 1468 1467 1466 1465
1371 1371 1370 1371 1371 1372 1372 1373 1375 1376 1378 1382 1385 1388 1391 1395 1399 1404 1409 1413 1418 1422 1427 1431 1435 1440 1443 1447 1450 1453 1456 1458 1460 1461 1462 1463 1463 1463 1463 1463 1463 1462 1461
1368 1368 1368 1368 1369 1369 1369 1370 1371 1373 1375 1377 1380 1383 1386 1390 1395 1399 1404 1408 1412 1417 1421 1426 1430 1435 1438 1442 1445 1448 1451 1453 1454 1456 1456 1457 1457 1458 1458 1459 1459 1457 1456
1367 1366 1366 1366 1366 1367 1367 1367 1367 1368 1370 1373 1375 1379 1382 1386 1390 1394 1399 1403 1407 1411 1416 1421 1425 1429 1433 1436 1440 1443 1445 1447 1449 1451 1452 1452 1453 1454 1454 1454 1454 1454 1453
1365 1365 1364 1364 1364 1364 1364 1364 1365 1366 1368 1369 1371 1373 1377 1381 1385 1389 1394 1399 1402 1407 1411 1415 1419 1423 1427 1431 1434 1437 1439 1441 1444 1446 1447 1448 1449 1450 1450 1451 1451 1450 1449
1364 1363 1363 1362 1362 1362 1362 1362 1363 1363 1364 1366 1368 1370 1372 1376 1380 1384 1389 1393 1397 1401 1406 1410 1414 1418 1421 1425 1429 1431 1434 1436 1439 1441 1442 1443 1445 1446 1446 1446 1446 1446 1445
1362 1361 1360 1360 1359 1359 1359 1360 1360 1361 1361 1362 1364 1366 1368 1371 1375 1380 1385 1388 1392 1396 1400 1405 1409 1413 1416 1420 1423 1426 1428 1430 1433 1435 1437 1439 1440 1441 1442 1442 1443 1442 1442
1359 1359 1358 1357 1357 1357 1357 1357 1357 1357 1358 1359 1361 1363 1365 1368 1371 1375 1380 1383 1387 1391 1395 1399 1403 1407 1411 1414 1418 1420 1423 1426 1428 1431 1433 1434 1436 1437 1437 1438 1439 1439 1439
1357 1356 1355 1355 1355 1354 1354 1354 1354 1354 1355 1356 1358 1360 1362 1364 1367 1371 1375 1379 1383 1386 1390 1393 1398 1402 1406 1409 1413 1416 1419 1422 1424 1426 1428 1430 1431 1432 1434 1435 1435 1436 1436
1354 1353 1352 1352 1352 1351 1351 1351 1351 1351 1352 1353 1355 1356 1358 1361 1364 1367 1371 1375 1378 1382 1385 1389 1393 1397 1401 1405 1408 1411 1414 1417 1419 1421 1423 1425 1427 1429 1430 1431 1432 1433 1433
1350 1350 1349 1348 1348 1348 1348 1348 1348 1348 1349 1351 1352 1353 1355 1357 1360 1363 1366 1370 1373 1377 1381 1385 1389 1393 1396 1400 1403 1407 1410 1412 1415 1417 1419 1422 1424 1425 1427 1428 1429 1429 1430
1347 1346 1345 1345 1344 1344 1344 1345 1345 1346 1347 1348 1350 1351 1352 1354 1356 1360 1362 1365 1368 1372 1376 1380 1384 1387 1391 1395 1399 1402 1405 1408 1411 1413 1416 1418 1420 1422 1423 1425 1426 1427 1427
1344 1343 1342 1341 1341 1341 1340 1341 1342 1344 1345 1346 1347 1349 1350 1352 1354 1356 1359 1362 1365 1369 1372 1375 1379 1383 1386 1390 1393 1397 1400 1404 1406 1409 1412 1414 1416 1418 1420 1421 1423 1424 1424
1341 1340 1339 1338 1338 1337 1337 1337 1337 1339 1341 1342 1344 1345 1347 1348 1350 1353 1355 1358 1362 1365 1368 1371 1375 1378 1382 1386 1389 1393 1396 1400 1403 1406 1408 1410 1413 1415 1417 1418 1419 1421 1422
1337 1336 1336 1335 1335 1334 1335 1335 1335 1335 1336 1337 1340 1342 1343 1345 1347 1350 1353 1355 1358 1361 1364 1367 1371 1374 1378 1382 1385 1389 1393 1396 1399 1402 1405 1407 1410 1411 1413 1415 1417 1418 1419
1333 1332 1332 1332 1331 1331 1331 1332 1332 1333 1333 1334 1336 1338 1340 1342 1344 1346 1349 1352 1354 1357 1361 1364 1368 1371 1375 1379 1382 1386 1389 1392 1396 1399 1401 1404 1406 1408 1410 1412 1414 1416 1417
1329 1329 1328 1328 1328 1328 1328 1328 1329 1329 1330 1332 1333 1334 1336 1338 1340 1342 1345 1348 1351 1354 1358 1361 1364 1368 1372 1375 1379 1383 1386 1389 1393 1396 1398 1401 1403 1406 1408 1410 1412 1413 1414
1325 1324 1324 1324 1324 1324 1324 1325 1325 1326 1327 1328 1330 1332 1334 1335 1337 1340 1342 1345 1348 1351 1354 1358 1361 1365 1368 1372 1376 1380 1383 1387 1390 1393 1395 1398 1401 1403 1406 1408 1410 1411 1413
1321 1320 1320 1320 1320 1320 1321 1322 1322 1323 1324 1325 1326 1329 1331 1333 1335 1337 1340 1342 1345 1349 1352 1355 1358 1362 1366 1369 1373 1377 1380 1384 1387 1390 1393 1396 1398 1401 1403 1405 1407 1409 1411
1317 1316 1316 1316 1316 1316 1317 1318 1319 1320 1321 1322 1324 1326 1328 1330 1332 1334 1337 1340 1343 1346 1350 1353 1356 1359 1363 1367 1370 1375 1378 1381 1384 1387 1390 1393 1396 1398 1401 1403 1405 1407 1408
1312 1312 1311 1312 1312 1312 1313 1314 1315 1316 1317 1319 1321 1323 1325 1327 1329 1332 1334 1337 1341 1344 1348 1351 1354 1357 1361 1364 1368 1372 1376 1380 1383 1386 1389 1391 1394 1397 1399 1401 1404 1405 1407
1308 1308 1307 1307 1308 1309 1309 1310 1311 1312 1314 1316 1318 1320 1322 1324 1327 1329 1332 1336 1339 1342 1345 1348 1352 1355 1359 1363 1367 1370 1374 1378 1381 1384 1386 1389 1392 1395 1397 1400 1402 1404 1406
1304 1303 1303 1304 1304 1305 1306 1306 1307 1309 1310 1312 1315 1317 1320 1322 1325 1327 1331 1334 1337 1340 1343 1346 1350 1354 1357 1361 1365 1369 1372 1375 1378 1382 1385 1388 1390 1393 1396 1398 1401 1403 1405